Zurück zum Katalog

SL-14 R/B

AktivPO
NORAD 15495·ROCKET BODY·🇷🇺 Russia

Gestartet Jan 24, 1985 von Plesetsk Cosmodrome

Loading…

Nächste Überflüge (nächste 24 Stunden)

TLE

AktuellSource: Space-Track

Epoche: Sep 14, 2026, 17:06 UTC

1 15495U 85009B   26257.71310942  .00000283  00000-0  29365-4 0  9997
2 15495  82.5195 261.0941 0018651 343.3027  16.7573 14.86246019229724

Verfolge SL-14 R/B in Echtzeit mit AllMySat

Download on the App Store